Location: Unspecified
(0.0000°N, 0.0000°E)
Time: 00:37:26
(UTC+00:00)

deb Kosmos-1275 - Pass Details

Date: 13 March 2026
Orbit: 924 x 993 km, 82.9° (Epoch: 14 April)

Event Time Altitude Azimuth Distance (km) Brightness Sun altitude
Rises 19:00:22 0° 333° (NNW) 3,630 ? -12.7°
Reaches altitude 10° 19:03:16 10° 321° (NW) 2,698 ? -13.5°
Maximum altitude 19:08:15 26° 267° (W) 1,823 ? -14.7°
Drops below altitude 10° 19:13:19 10° 212° (SSW) 2,740 ? -16.0°
Sets 19:16:18 0° 200° (SSW) 3,698 ? -16.7°
